Location: WWIN Observatory
(34.8953°N, 91.9583°W)
Time: 10:28:46
(UTC-06:00)

AAUSAT CUBESAT 2 - Visible Passes

Search period start: 15 December 2019 00:00
Search period end: 25 December 2019 00:00
Orbit: 575 x 590 km, 97.5° (Epoch: 14 December)

Date Brightness Start Highest point End Pass type
(mag) Time Alt. Az. Time Alt. Az. Time Alt. Az.
15 Dec ? 05:27:56 10° ENE 05:29:15 11° E 05:30:35 10° ESE visible
15 Dec ? 17:46:32 10° SSE 17:50:35 68° ENE 17:54:42 10° N visible
16 Dec ? 05:33:00 10° ENE 05:35:04 13° E 05:37:08 10° ESE visible
16 Dec ? 17:52:15 10° SSE 17:56:21 81° ENE 18:00:29 10° N visible
17 Dec ? 05:38:18 10° NE 05:40:53 16° E 05:43:26 10° SE visible
17 Dec ? 17:58:00 10° S 18:02:05 85° WSW 18:06:15 10° NNW visible
18 Dec ? 05:43:43 10° NE 05:46:41 19° E 05:49:36 10° SE visible
18 Dec ? 18:03:46 10° S 18:07:51 72° W 18:12:00 10° NNW visible
19 Dec ? 05:49:13 10° NE 05:52:28 22° E 05:55:42 10° SSE visible
19 Dec ? 18:09:34 10° S 18:13:37 60° W 18:17:43 10° NNW visible
20 Dec ? 05:54:46 10° NE 05:58:16 25° E 06:01:43 10° SSE visible
20 Dec ? 18:15:24 10° S 18:19:23 50° W 18:23:25 10° NNW visible
21 Dec ? 06:00:21 10° NE 06:04:02 30° E 06:07:42 10° SSE visible
21 Dec ? 18:21:15 10° S 18:25:09 42° W 18:29:05 10° NNW visible
22 Dec ? 06:05:59 10° NNE 06:09:49 35° E 06:13:38 10° SSE visible
22 Dec ? 18:27:08 10° SSW 18:30:55 35° W 18:34:44 10° NNW visible
23 Dec ? 06:11:37 10° NNE 06:15:35 42° E 06:19:31 10° S visible
23 Dec ? 18:33:04 10° SSW 18:36:41 30° W 18:40:21 10° NW visible
24 Dec ? 06:17:17 10° NNE 06:21:21 50° E 06:25:22 10° S visible
24 Dec ? 18:39:02 10° SSW 18:42:28 25° W 18:45:56 10° NW visible
